Flag for Poland Weather past 2 weeks in Warsaw, Poland

Now
43 °F

Scattered clouds.


Feels Like: 34 °F
Forecast: 34 / 42 °F
Wind: 18 mph from West

Location: Warsaw Okecie Airport

Current Time: Apr 1, 2015 at 1:27:54 PM

Latest Report: Apr 1, 2015 at 1:00 PM


Visibility: N/A

Pressure: 29.42 "Hg

Humidity: 76%

Dew point: 36 °F

Location of WarsawLocation

Historic Weather in Warsaw — Graph

°F

Warsaw temperature yesterday

Maximum temperature yesterday: 43 °F (at 9:30 AM)
Minimum temperature yesterday: 36 °F (at 2:00 PM)
Average temperature yesterday: 40 °F

Past Weeks' High & Low Weather Summary

 TemperatureHumidityPressure
High68 °F (Mar 27, 11:30 AM)100% (Mar 20, 6:00 AM)30.72 "Hg (Mar 20, 6:00 AM)
Low21 °F (Mar 23, 2:30 AM)19% (Mar 18, 12:00 PM)29.12 "Hg (Mar 30, 7:30 AM)
Average44 °F63%29.93 "Hg
* Reported Mar 17 11:00 AM — Apr 1 12:30 PM, Warsaw, Weather by CustomWeather, © 2015

Note: Actual official high and low records may vary slightly from our data, if they occured in-between our weather recording intervals... More about our weather records

Advertising

Warsaw weather history for previous 24 hours

 ConditionsComfort  
Time TempWeatherWind HumidityBarometerVisibility
12:30 PM
Wed, Apr 1
43 °FBroken clouds.22 mph76%29.42 "HgN/A
12:00 PM41 °FPartly sunny.22 mph81%29.42 "HgN/A
11:30 AM41 °FPartly sunny.22 mph87%29.39 "HgN/A
11:00 AM39 °FLight rain. Partly sunny.22 mph87%29.39 "HgN/A
10:30 AM37 °FLight rain. Partly sunny.20 mph93%29.36 "HgN/A
10:00 AM37 °FLight rain. Partly sunny.23 mph93%29.33 "HgN/A
9:30 AM37 °FLight rain. Partly sunny.22 mph93%29.33 "HgN/A
9:00 AM37 °FLight rain. Partly sunny.22 mph93%29.30 "HgN/A
8:30 AM37 °FLight rain. Partly sunny.24 mph87%29.27 "HgN/A
8:00 AM37 °FLight rain. Partly sunny.25 mph87%29.27 "HgN/A
7:30 AM37 °FLight rain. Mostly cloudy.23 mph87%29.24 "HgN/A
7:00 AM37 °FLight rain. Mostly cloudy.26 mph93%29.24 "HgN/A
6:30 AM37 °FLight rain. Passing clouds.28 mph87%29.21 "HgN/A
6:00 AM37 °FLight rain. Passing clouds.28 mph87%29.21 "HgN/A
5:30 AM37 °FLight rain. Passing clouds.25 mph87%29.18 "HgN/A
5:00 AM37 °FLight rain. Passing clouds.26 mph87%29.18 "HgN/A
4:30 AM37 °FLight rain. Passing clouds.24 mph93%29.18 "HgN/A
4:00 AM37 °FLight rain. Passing clouds.26 mph93%29.15 "HgN/A
3:30 AM37 °FLight rain. Mostly cloudy.35 mph93%29.15 "HgN/A
3:00 AM39 °FLight rain. Passing clouds.29 mph87%29.15 "HgN/A
2:30 AM41 °FLight rain. Passing clouds.26 mph81%29.15 "HgN/A
2:00 AM41 °FLight rain. Passing clouds.24 mph87%29.15 "HgN/A
1:30 AM41 °FLight rain. Passing clouds.26 mph87%29.15 "HgN/A
1:00 AM43 °FPassing clouds.23 mph81%29.15 "HgN/A
12:30 AM43 °FLight rain. Passing clouds.21 mph87%29.15 "HgN/A
12:00 AM43 °FLight rain. Partly cloudy.21 mph87%29.15 "HgN/A
11:30 PM
Tue, Mar 31
43 °FSprinkles. Passing clouds.18 mph87%29.15 "HgN/A
11:00 PM43 °FRain showers. Passing clouds.15 mph93%29.15 "HgN/A
10:30 PM43 °FSprinkles. Passing clouds.21 mph87%29.15 "HgN/A
10:00 PM43 °FSprinkles. Partly cloudy.15 mph87%29.12 "HgN/A
9:30 PM43 °FPartly cloudy.16 mph87%29.12 "HgN/A
9:00 PM43 °FSprinkles. Partly cloudy.16 mph87%29.12 "HgN/A
8:30 PM43 °FPassing clouds.10 mph87%29.12 "HgN/A
8:00 PM43 °FPartly sunny.12 mph87%29.12 "HgN/A
7:30 PM41 °FLight rain. Partly sunny.14 mph93%29.12 "HgN/A
7:00 PM41 °FLight rain. Partly sunny.9 mph93%29.12 "HgN/A
6:30 PM39 °FBroken clouds.9 mph93%29.12 "HgN/A
6:00 PM39 °FPartly sunny.10 mph87%29.12 "HgN/A
5:30 PM37 °FLow clouds.14 mph93%29.15 "HgN/A
5:00 PM36 °FLight rain. Mostly cloudy.14 mph100%29.15 "Hg4 mi
4:30 PM36 °FLight rain. Mostly cloudy.14 mph93%29.15 "HgN/A
4:00 PM36 °FLight rain. Mostly cloudy.18 mph93%29.18 "HgN/A
3:30 PM36 °FLight rain. Mostly cloudy.20 mph93%29.21 "HgN/A
3:00 PM36 °FLight rain. Partly sunny.17 mph93%29.24 "HgN/A
2:30 PM36 °FLight rain. Partly sunny.16 mph93%29.27 "Hg6 mi
2:00 PM36 °FLight rain. Broken clouds.15 mph93%29.27 "HgN/A
1:30 PM37 °FLight rain. Partly sunny.21 mph87%29.33 "HgN/A
1:00 PM43 °FPartly sunny.22 mph57%29.33 "HgN/A
Weather by CustomWeather, © 2015

See weather overviewHow to use our weather pages